Voltar ao catálogo

HULIANWANG DIGUI-172

AtivoCiênciaLEO
NORAD 69575·PAYLOAD·🇨🇳 China

Lançado Jun 17, 2026 de Wenchang Space Launch Site

Loading…

Próximas Passagens (próximas 24 horas)

TLE

AtualizadoSource: Space-Track

Época: Sep 14, 2026, 01:50 UTC

1 69575U 26137D   26257.07656363 -.00000098  00000-0  56852-4 0  9997
2 69575  49.9965 277.0825 0000187 321.6330  38.4529 13.29326173 12158

Acompanhe HULIANWANG DIGUI-172 em tempo real com AllMySat

Download on the App Store